Oelwein, IA

9:50 PM CST on December 09, 2016 (GMT -0600)
Oelwein Municipal

Weather History for KOLZ - April, 2013

Change the Weather History Date:

Saturday, April 6, 2013

  Actual Average Record
Temperature  
Mean Temperature 48 °F -  
Max Temperature 60 °F 55 °F 87 °F (1991)
Min Temperature 35 °F 32 °F 12 °F (1979)
Degree Days  
Heating Degree Days 18    
Moisture  
Dew Point 37 °F    
Average Humidity 69    
Maximum Humidity 94    
Minimum Humidity 48    
Precipitation  
Precipitation 0.05 in - - ()
Sea Level Pressure  
Sea Level Pressure 29.70 in    
Wind  
Wind Speed 6 mph (SE)    
Max Wind Speed 25 mph    
Max Gust Speed 36 mph    
Visibility 9 miles    
Events Rain    
Averages and records for this station are not official NWS values.
T = Trace of Precipitation, MM = Missing Value Source: NWS Daily Summary

Daily Weather History Graph

Daily Weather History Graph

Search for Another Location

Airport or City:

Trip Planner

Search our weather history database for the weather conditions in past years. The results will help you decide how hot, cold, wet, or windy it might be!

Date:

Astronomy

Apr. 06, 2013 Rise Set
Actual Time 6:41 AM CDT 7:40 PM CDT
Civil Twilight 6:12 AM CDT 8:08 PM CDT
Nautical Twilight 5:38 AM CDT 8:43 PM CDT
Astronomical Twilight 5:02 AM CDT 9:19 PM CDT
Moon 4:29 AM CDT (4/6) 4:04 PM CDT (4/6)
Length of Visible Light 13h 56m
Length of Day
12h 58m
Waning Crescent, 15% of the Moon is Illuminated
Apr 6
Waning Crescent
Apr 10
New
Apr 18
First Quarter
Apr 25
Full
May 2
Last Quarter

Hourly Weather History & Observations

Time (CDT) Temp. Windchill Dew Point Humidity Pressure Visibility Wind Dir Wind Speed Gust Speed Precip Events Conditions
12:15 AM 42.8 °F 35.4 °F 28.4 °F 57% 29.93 in 10.0 mi ESE 15.0 mph 27.6 mph N/A   Unknown
12:35 AM 42.8 °F - 30.2 °F 61% 29.92 in 10.0 mi Calm Calm - N/A   Unknown
12:55 AM 42.8 °F 33.1 °F 28.4 °F 57% 29.92 in 10.0 mi SE 25.3 mph 33.4 mph N/A   Unknown
1:15 AM 42.8 °F 34.0 °F 28.4 °F 57% 29.91 in 10.0 mi SE 20.7 mph 32.2 mph N/A   Unknown
1:35 AM 41.0 °F 32.2 °F 28.4 °F 61% 29.90 in 10.0 mi SE 18.4 mph 32.2 mph N/A   Unknown
1:55 AM 41.0 °F 33.5 °F 28.4 °F 61% 29.91 in 10.0 mi SE 13.8 mph 29.9 mph N/A   Unknown
2:15 AM 41.0 °F 34.3 °F 28.4 °F 61% 29.90 in 10.0 mi SE 11.5 mph 28.8 mph N/A   Unknown
2:35 AM 39.2 °F 33.6 °F 28.4 °F 65% 29.89 in 10.0 mi ESE 8.1 mph - N/A   Unknown
2:55 AM 39.2 °F 32.5 °F 26.6 °F 61% 29.88 in 10.0 mi SE 10.4 mph 28.8 mph N/A   Unknown
3:15 AM 39.2 °F - 26.6 °F 61% 29.88 in 10.0 mi Calm Calm - N/A   Unknown
3:35 AM 37.4 °F - 26.6 °F 65% 29.86 in 10.0 mi Calm Calm - N/A   Unknown
3:55 AM 37.4 °F - 24.8 °F 60% 29.85 in 10.0 mi Calm Calm - N/A   Unknown
4:15 AM 37.4 °F 30.3 °F 24.8 °F 60% 29.83 in 10.0 mi SE 10.4 mph 25.3 mph N/A   Unknown
4:35 AM 37.4 °F 32.8 °F 24.8 °F 60% 29.82 in 10.0 mi SE 5.8 mph 28.8 mph N/A   Unknown
4:55 AM 37.4 °F 31.4 °F 26.6 °F 65% 29.81 in 10.0 mi SE 8.1 mph 29.9 mph N/A   Unknown
5:15 AM 35.6 °F 25.5 °F 28.4 °F 75% 29.81 in 7.0 mi SE 17.3 mph 29.9 mph N/A Rain Light Rain
5:35 AM 35.6 °F 26.6 °F 30.2 °F 81% 29.77 in 10.0 mi SE 13.8 mph 35.7 mph N/A Rain Light Rain
5:55 AM 35.6 °F - 28.4 °F 75% 29.77 in 10.0 mi Calm Calm - N/A   Unknown
6:15 AM 37.4 °F - 28.4 °F 70% 29.77 in 10.0 mi Calm Calm - N/A   Unknown
6:35 AM 37.4 °F - 28.4 °F 70% 29.76 in 10.0 mi Calm Calm - N/A   Unknown
6:55 AM 37.4 °F - 28.4 °F 70% 29.74 in 10.0 mi Calm Calm - N/A   Unknown
7:15 AM 37.4 °F - 30.2 °F 75% 29.75 in 10.0 mi Calm Calm - N/A   Unknown
7:35 AM 41.0 °F - 32.0 °F 70% 29.74 in 10.0 mi Calm Calm - N/A   Unknown
7:55 AM 41.0 °F - 32.0 °F 70% 29.73 in 10.0 mi Calm Calm - N/A   Unknown
8:15 AM 42.8 °F - 32.0 °F 66% 29.73 in 10.0 mi Calm Calm - N/A   Unknown
8:35 AM 42.8 °F - 32.0 °F 66% 29.72 in 10.0 mi Calm Calm - N/A   Unknown
8:55 AM 44.6 °F - 32.0 °F 61% 29.70 in 10.0 mi Calm Calm - N/A   Unknown
9:15 AM 46.4 °F - 32.0 °F 57% 29.69 in 10.0 mi Calm Calm - N/A   Unknown
9:35 AM 46.4 °F - 33.8 °F 62% 29.68 in 10.0 mi Calm Calm - N/A   Unknown
9:55 AM 50.0 °F - 33.8 °F 54% 29.67 in 10.0 mi Calm Calm - N/A   Unknown
10:15 AM 51.8 °F - 35.6 °F 54% 29.66 in 10.0 mi Calm Calm - N/A   Unknown
10:35 AM 55.4 °F - 37.4 °F 51% 29.66 in 10.0 mi Calm Calm - N/A   Unknown
10:55 AM 55.4 °F - 37.4 °F 51% 29.65 in 10.0 mi Calm Calm - N/A   Unknown
11:15 AM 59.0 °F - 39.2 °F 48% 29.64 in 10.0 mi South 6.9 mph - N/A   Unknown
11:35 AM 59.0 °F - 41.0 °F 51% 29.63 in 10.0 mi Calm Calm - N/A   Unknown
11:55 AM 59.0 °F - 41.0 °F 51% 29.62 in 10.0 mi Calm Calm - N/A   Unknown
12:15 PM 59.0 °F - 41.0 °F 51% 29.61 in 10.0 mi Calm Calm - N/A   Unknown
12:35 PM 60.8 °F - 41.0 °F 48% 29.60 in 10.0 mi Calm Calm - N/A   Unknown
12:55 PM 60.8 °F - 42.8 °F 52% 29.60 in 10.0 mi Calm Calm - N/A   Unknown
1:15 PM 59.0 °F - 42.8 °F 55% 29.60 in 10.0 mi Calm Calm - N/A   Light Drizzle
1:35 PM 59.0 °F - 42.8 °F 55% 29.60 in 10.0 mi Calm Calm - N/A   Unknown
1:55 PM 59.0 °F - 42.8 °F 55% 29.59 in 10.0 mi Calm Calm - N/A   Unknown
2:15 PM 59.0 °F - 42.8 °F 55% 29.59 in 10.0 mi Calm Calm - N/A   Unknown
2:35 PM 59.0 °F - 42.8 °F 55% 29.58 in 10.0 mi Calm Calm - N/A   Unknown
2:55 PM 60.8 °F - 44.6 °F 55% 29.57 in 10.0 mi Calm Calm - N/A   Unknown
3:15 PM 59.0 °F - 44.6 °F 59% 29.56 in 10.0 mi Calm Calm - N/A   Unknown
3:35 PM 59.0 °F - 44.6 °F 59% 29.55 in 10.0 mi Calm Calm - N/A   Unknown
3:55 PM 57.2 °F - 44.6 °F 63% 29.56 in 10.0 mi Calm Calm - N/A Rain Light Rain
4:15 PM 55.4 °F - 46.4 °F 72% 29.56 in 10.0 mi Calm Calm - N/A Rain Rain
4:35 PM 53.6 °F - 48.2 °F 82% 29.57 in 10.0 mi Calm Calm - 0.01 in Rain Light Rain
4:55 PM 53.6 °F - 48.2 °F 82% 29.54 in 10.0 mi Calm Calm - 0.02 in Rain Light Rain
5:15 PM 53.6 °F - 50.0 °F 88% 29.55 in 10.0 mi Calm Calm - N/A Rain Light Rain
5:35 PM 53.6 °F - 50.0 °F 88% 29.56 in 10.0 mi SW 3.5 mph - N/A Rain Light Rain
5:55 PM 53.6 °F - 48.2 °F 82% 29.56 in 10.0 mi Calm Calm - N/A   Unknown
6:15 PM 53.6 °F - 50.0 °F 88% 29.58 in 10.0 mi Calm Calm - N/A   Light Drizzle
6:35 PM 51.8 °F - 50.0 °F 94% 29.59 in 5.0 mi Calm Calm - 0.02 in Rain Rain
6:55 PM 50.0 °F - 46.4 °F 87% 29.59 in 5.0 mi Calm Calm - 0.03 in Rain Light Rain
7:15 PM 48.2 °F - 46.4 °F 93% 29.60 in 5.0 mi Calm Calm - N/A Rain Light Rain
7:35 PM 48.2 °F - 46.4 °F 93% 29.61 in 5.0 mi Calm Calm - N/A   Mist
7:55 PM 46.4 °F - 44.6 °F 93% 29.61 in 7.0 mi Calm Calm - N/A   Unknown
8:15 PM 46.4 °F - 44.6 °F 93% 29.62 in 7.0 mi Calm Calm - N/A   Unknown
8:35 PM 46.4 °F 39.0 °F 44.6 °F 93% 29.64 in 7.0 mi WNW 19.6 mph 32.2 mph N/A   Unknown
8:55 PM 46.4 °F - 42.8 °F 87% 29.66 in 7.0 mi Calm Calm - N/A   Unknown
9:15 PM 46.4 °F - 42.8 °F 87% 29.67 in 7.0 mi Calm Calm - N/A   Unknown
9:35 PM 46.4 °F - 42.8 °F 87% 29.67 in 7.0 mi Calm Calm - N/A   Unknown
9:55 PM 46.4 °F - 42.8 °F 87% 29.69 in 7.0 mi Calm Calm - N/A   Unknown
10:15 PM 46.4 °F - 42.8 °F 87% 29.69 in 7.0 mi Calm Calm - N/A   Unknown
10:35 PM 44.6 °F - 41.0 °F 87% 29.71 in 10.0 mi Calm Calm - N/A   Unknown
10:55 PM 44.6 °F - 39.2 °F 81% 29.72 in 10.0 mi Calm Calm - N/A   Unknown
11:15 PM 44.6 °F - 37.4 °F 76% 29.72 in 10.0 mi Calm Calm - N/A   Unknown
11:35 PM 44.6 °F - 39.2 °F 81% 29.73 in 10.0 mi Calm Calm - N/A   Unknown
11:55 PM 42.8 °F - 39.2 °F 87% 29.73 in 7.0 mi Calm Calm - N/A   Unknown